sat.trackr.live / text

‹ back to catalog

STARLINK-5210

NORAD 54082 · 2022-136AH

PAYLOAD ACTIVE UNKNOWN

§ Identity

Operator
Country
US
Launch date
2022-10-20
Launch site
AFETR
Launch vehicle
Mass (kg)
RCS (m²)

Purposes: comms

External: N2YO · Heavens-Above · Gunter

§ Orbital elements

Epoch: 2026-05-24T22:42:53.477856Z

Period
95.44 min
Inclination
53.2130°
Eccentricity
0.0001313
Mean motion
15.08838294 rev/d
Perigee alt
538.8 km
Apogee alt
540.7 km
Semi-major
6,917.9 km
B*
2.3191e-5
RAAN
351.9737°
Arg perigee
65.5249°
Mean anomaly
294.5880°
Rev number
19,849

§ Raw data

STARLINK-52101 54082U 22136AH  26144.94645229  .00000081  00000+0  23191-4 0  99992 54082  53.2130 351.9737 0001313  65.5249 294.5880 15.08838294198494

JSON: /api/v1/satellites/54082 · /tle

For live sub-satellite position, see the globe view (requires WebGL).

§ Visibility from observer

Set your observer location to see the next 7 days of passes ≥ 10°. The values pass through the URL so the page stays shareable.

No JS? Fill the form by hand. The geolocation button needs JavaScript.